Temp
-9 -9 -9 -9 -9 -9 -9 -9 -9 -9 -9 -9 -9 -9 -9 -9 -9 -9 -9 -9 -9 -9 -9 -9 -9 -9 -9 -9 -9 -9 -9 -10 -10 -10 -10 -10 -10 -10 -10 -10 -10 -10 -10 -10 -10
-9 -9 -9 -9 -9 -9 -9 -9 -9 -9 -9 -9 -9 -9 -9 -9 -9 -9 -9 -9 -9 -9 -9 -9 -9 -9 -9 -9 -10 -9 -9 -10 -10 -10 -10 -10 -10 -10 -10 -10 -11 -10 -10 -10 -10
-9 -9 -9 -9 -9 -9 -9 -9 -9 -9 -9 -9 -9 -9 -9 -9 -9 -9 -9 -9 -9 -9 -9 -10 -10 -10 -10 -10 -10 -10 -10 -10 -10 -10 -10 -10 -11 -11 -10 -10 -12 -11 -11 -10 -11
-9 -9 -9 -9 -9 -9 -9 -9 -9 -9 -9 -9 -9 -9 -9 -9 -9 -9 -9 -9 -9 -10 -10 -10 -10 -10 -10 -10 -10 -10 -10 -10 -10 -11 -11 -11 -11 -11 -10 -11 -12 -12 -11 -11 -11
-9 -9 -9 -9 -9 -9 -9 -9 -9 -9 -9 -9 -9 -9 -9 -9 -10 -10 -10 -10 -10 -10 -10 -10 -10 -10 -10 -10 -10 -10 -10 -10 -11 -11 -11 -11 -11 -11 -10 -12 -12 -12 -11 -11 -10
-10 -10 -9 -9 -9 -9 -9 -9 -9 -9 -9 -9 -9 -9 -10 -10 -10 -10 -10 -10 -10 -10 -10 -10 -10 -10 -10 -10 -10 -10 -10 -10 -10 -11 -11 -12 -12 -10 -10 -12 -11 -12 -11 -11 -10
-10 -10 -10 -10 -10 -10 -10 -10 -10 -10 -10 -10 -10 -10 -10 -10 -10 -10 -10 -10 -10 -10 -10 -10 -10 -10 -10 -10 -10 -10 -10 -10 -11 -11 -11 -11 -11 -10 -11 -11 -11 -11 -11 -11 -10
-10 -10 -10 -10 -10 -10 -10 -10 -10 -10 -10 -10 -10 -10 -10 -11 -11 -11 -11 -11 -11 -11 -11 -11 -10 -10 -10 -10 -10 -10 -10 -10 -11 -11 -11 -11 -10 -11 -11 -11 -11 -11 -10 -10 -10
-11 -10 -10 -10 -10 -10 -10 -10 -10 -11 -11 -11 -11 -11 -11 -11 -11 -11 -11 -11 -11 -11 -11 -11 -11 -11 -11 -11 -10 -11 -11 -11 -10 -11 -10 -10 -10 -10 -11 -10 -10 -10 -10 -11 -11
-11 -11 -11 -11 -11 -11 -11 -11 -11 -11 -11 -11 -11 -11 -11 -11 -11 -11 -11 -11 -11 -11 -11 -11 -11 -11 -11 -11 -11 -11 -10 -10 -10 -11 -10 -10 -9 -10 -10 -10 -10 -10 -11 -11 -11
-11 -11 -11 -11 -11 -11 -11 -11 -11 -11 -11 -11 -11 -11 -11 -11 -11 -11 -11 -11 -11 -11 -11 -11 -11 -11 -12 -12 -12 -11 -11 -10 -11 -11 -10 -9 -8 -9 -9 -9 -9 -10 -10 -10 -10
-12 -11 -11 -11 -11 -11 -11 -11 -11 -11 -11 -11 -11 -11 -11 -11 -11 -11 -11 -11 -11 -11 -11 -11 -11 -12 -12 -12 -12 -12 -11 -11 -10 -11 -10 -9 -8 -8 -9 -9 -10 -10 -10 -10 -10
-12 -12 -12 -12 -12 -12 -12 -12 -12 -11 -10 -10 -11 -11 -11 -11 -11 -12 -12 -12 -11 -11 -11 -11 -11 -12 -12 -12 -12 -12 -12 -11 -10 -10 -10 -9 -7 -8 -8 -9 -10 -10 -10 -10 -10
-12 -12 -12 -12 -12 -12 -13 -13 -12 -12 -10 -10 -11 -11 -12 -12 -12 -12 -12 -12 -12 -13 -13 -12 -12 -12 -13 -12 -13 -12 -13 -12 -12 -11 -10 -9 -6 -7 -8 -9 -9 -10 -10 -10 -11
-13 -13 -12 -12 -12 -13 -13 -13 -13 -13 -11 -11 -11 -12 -12 -12 -12 -13 -12 -13 -13 -13 -13 -13 -13 -13 -12 -13 -13 -12 -12 -13 -13 -12 -12 -10 -10 -7 -9 -9 -9 -10 -10 -10 -11
-13 -13 -13 -13 -13 -13 -13 -13 -14 -14 -11 -12 -12 -13 -13 -13 -13 -13 -13 -13 -13 -13 -13 -13 -13 -12 -13 -13 -13 -13 -13 -13 -13 -13 -12 -11 -12 -5 -9 -9 -10 -11 -11 -11 -11
-13 -14 -14 -14 -14 -14 -14 -14 -14 -13 -12 -12 -13 -13 -14 -14 -14 -14 -14 -14 -14 -13 -13 -13 -13 -13 -13 -14 -14 -15 -15 -14 -14 -14 -13 -13 -13 -9 -10 -11 -10 -11 -12 -12 -12
-15 -15 -14 -14 -15 -15 -14 -15 -13 -12 -12 -13 -15 -15 -14 -15 -15 -15 -15 -15 -15 -15 -14 -13 -12 -14 -14 -15 -15 -15 -16 -15 -15 -15 -14 -14 -12 -10 -11 -11 -11 -12 -13 -13 -14
-14 -14 -14 -16 -15 -15 -15 -15 -13 -13 -14 -15 -15 -15 -15 -15 -17 -16 -16 -15 -15 -16 -16 -16 -13 -14 -14 -15 -15 -15 -15 -17 -17 -17 -17 -15 -14 -13 -12 -12 -13 -13 -14 -15 -15
-15 -15 -15 -17 -17 -17 -17 -14 -14 -14 -15 -15 -15 -16 -15 -16 -16 -17 -17 -15 -15 -15 -16 -16 -16 -14 -15 -15 -15 -16 -17 -16 -17 -18 -18 -17 -16 -15 -13 -13 -14 -15 -16 -16 -16
-17 -16 -16 -17 -18 -17 -17 -16 -17 -17 -17 -17 -17 -18 -17 -16 -18 -18 -19 -18 -16 -17 -17 -17 -18 -15 -16 -14 -15 -16 -17 -17 -19 -20 -20 -19 -19 -17 -15 -14 -15 -16 -16 -16 -16
-17 -17 -17 -17 -18 -18 -17 -18 -18 -17 -18 -18 -18 -18 -19 -19 -19 -19 -18 -19 -18 -18 -18 -18 -18 -19 -18 -17 -17 -17 -18 -19 -19 -19 -20 -20 -19 -18 -18 -17 -17 -16 -16 -16 -15
-18 -18 -18 -18 -18 -19 -19 -19 -19 -19 -19 -19 -19 -19 -19 -19 -19 -19 -19 -19 -19 -19 -18 -19 -19 -19 -19 -19 -18 -19 -20 -20 -20 -20 -20 -20 -19 -19 -20 -20 -18 -17 -17 -16 -16
-20 -20 -19 -20 -20 -20 -20 -20 -20 -19 -19 -20 -20 -20 -20 -20 -20 -21 -20 -20 -20 -20 -19 -19 -21 -20 -20 -20 -20 -20 -21 -21 -20 -20 -20 -20 -20 -20 -20 -20 -20 -19 -19 -18 -18
-20 -20 -20 -20 -20 -21 -21 -21 -20 -20 -21 -21 -21 -21 -21 -21 -21 -21 -22 -22 -21 -21 -21 -21 -22 -22 -21 -21 -22 -22 -21 -21 -21 -21 -22 -21 -21 -22 -21 -21 -22 -21 -20 -20 -19
-20 -21 -21 -21 -22 -22 -22 -22 -22 -21 -23 -22 -23 -22 -22 -22 -22 -22 -22 -22 -22 -22 -22 -22 -22 -22 -22 -22 -23 -23 -22 -22 -22 -22 -23 -22 -22 -22 -22 -22 -22 -21 -21 -21 -20
-22 -22 -22 -22 -22 -23 -22 -23 -23 -23 -23 -23 -23 -23 -23 -23 -23 -23 -23 -23 -23 -23 -23 -23 -23 -23 -23 -23 -24 -23 -22 -22 -23 -23 -23 -23 -23 -23 -23 -24 -23 -22 -21 -21 -21
Height
5870 5871 5872 5872 5873 5874 5874 5874 5874 5874 5873 5873 5873 5873 5872 5872 5871 5871 5870 5870 5869 5868 5867 5866 5865 5863 5862 5861 5860 5860 5860 5859 5858 5857 5856 5855 5854 5855 5855 5853 5852 5849 5849 5849 5848
5866 5867 5868 5869 5869 5870 5870 5870 5870 5870 5870 5869 5869 5869 5869 5869 5868 5867 5867 5865 5865 5864 5863 5862 5861 5860 5858 5857 5856 5855 5856 5854 5852 5851 5851 5850 5850 5849 5850 5848 5845 5844 5844 5844 5844
5862 5863 5863 5864 5865 5865 5866 5866 5866 5865 5865 5865 5865 5865 5865 5865 5863 5863 5862 5862 5861 5860 5859 5858 5856 5855 5854 5852 5851 5852 5852 5848 5848 5844 5844 5845 5844 5843 5843 5844 5838 5840 5838 5837 5837
5857 5858 5858 5859 5859 5860 5860 5860 5860 5860 5859 5860 5860 5860 5860 5861 5859 5857 5858 5857 5856 5855 5854 5853 5851 5849 5848 5846 5845 5845 5846 5843 5843 5838 5837 5837 5838 5837 5835 5837 5831 5832 5831 5831 5830
5850 5851 5852 5852 5853 5853 5854 5854 5854 5854 5854 5853 5853 5854 5855 5858 5852 5852 5853 5851 5851 5849 5848 5846 5845 5841 5842 5842 5839 5838 5839 5838 5837 5834 5831 5828 5831 5826 5831 5830 5824 5823 5825 5823 5823
5843 5844 5845 5846 5846 5847 5847 5847 5847 5847 5846 5846 5846 5847 5849 5854 5847 5845 5845 5845 5845 5844 5842 5840 5838 5835 5835 5836 5833 5832 5832 5833 5833 5830 5825 5820 5823 5818 5828 5817 5819 5817 5817 5816 5816
5836 5836 5837 5838 5840 5840 5840 5840 5840 5840 5839 5839 5839 5839 5843 5847 5844 5841 5838 5838 5837 5836 5835 5832 5830 5828 5828 5830 5826 5824 5822 5825 5829 5824 5816 5811 5812 5818 5817 5812 5811 5811 5809 5808 5808
5829 5829 5829 5831 5831 5832 5832 5832 5832 5832 5832 5831 5831 5830 5834 5839 5837 5834 5831 5831 5829 5828 5827 5825 5821 5819 5820 5821 5817 5817 5812 5816 5823 5817 5811 5803 5799 5816 5810 5804 5803 5804 5802 5801 5802
5820 5820 5821 5821 5822 5823 5823 5824 5824 5824 5823 5822 5822 5821 5825 5830 5829 5826 5825 5824 5822 5820 5817 5816 5812 5809 5811 5814 5806 5810 5800 5800 5805 5814 5802 5793 5789 5801 5803 5798 5795 5797 5799 5795 5795
5811 5811 5812 5812 5813 5814 5814 5814 5814 5814 5814 5813 5812 5813 5814 5817 5818 5819 5819 5816 5813 5812 5810 5808 5801 5799 5804 5806 5796 5794 5790 5790 5792 5805 5796 5782 5779 5785 5790 5789 5792 5791 5790 5787 5785
5801 5802 5803 5804 5804 5804 5804 5805 5806 5805 5804 5803 5801 5802 5803 5803 5805 5809 5809 5808 5806 5804 5802 5798 5793 5795 5800 5792 5788 5785 5782 5780 5785 5787 5777 5776 5771 5775 5779 5781 5785 5783 5779 5779 5779
5791 5791 5792 5793 5793 5793 5793 5793 5792 5792 5792 5791 5792 5790 5790 5791 5791 5795 5796 5796 5795 5794 5793 5788 5781 5789 5783 5782 5779 5777 5774 5771 5770 5772 5768 5765 5759 5764 5771 5772 5770 5772 5771 5767 5767
5779 5780 5781 5781 5782 5782 5782 5781 5781 5779 5777 5781 5782 5779 5780 5780 5780 5782 5780 5780 5781 5781 5782 5776 5776 5775 5773 5770 5771 5769 5765 5764 5759 5759 5758 5754 5746 5750 5759 5764 5763 5762 5761 5759 5758
5768 5768 5769 5769 5771 5770 5769 5768 5769 5768 5765 5766 5768 5769 5770 5770 5771 5768 5768 5768 5767 5766 5766 5763 5768 5765 5761 5760 5760 5754 5757 5753 5752 5748 5744 5744 5731 5738 5747 5751 5753 5752 5749 5746 5747
5755 5754 5756 5756 5757 5757 5757 5756 5757 5760 5753 5753 5749 5751 5756 5760 5760 5760 5757 5755 5754 5754 5755 5756 5754 5752 5751 5750 5745 5748 5744 5743 5741 5738 5735 5730 5730 5734 5734 5732 5729 5733 5740 5740 5737
5743 5743 5744 5745 5744 5743 5744 5745 5747 5748 5736 5740 5741 5743 5744 5746 5747 5745 5745 5744 5741 5739 5739 5741 5740 5738 5737 5737 5735 5732 5730 5727 5724 5724 5723 5726 5726 5722 5727 5722 5718 5721 5719 5717 5716
5731 5732 5734 5733 5734 5731 5732 5732 5735 5731 5730 5732 5732 5733 5733 5732 5729 5728 5728 5729 5729 5726 5726 5724 5725 5726 5723 5721 5720 5717 5715 5709 5706 5706 5711 5712 5707 5717 5714 5718 5714 5712 5709 5704 5699
5718 5720 5722 5722 5720 5718 5718 5720 5719 5721 5722 5722 5719 5718 5717 5718 5716 5715 5713 5714 5715 5712 5709 5707 5712 5712 5711 5709 5706 5702 5702 5697 5686 5691 5692 5691 5686 5706 5707 5706 5706 5701 5694 5690 5684
5704 5706 5709 5709 5704 5702 5703 5703 5710 5711 5710 5709 5708 5704 5707 5705 5700 5697 5696 5700 5701 5700 5693 5688 5692 5695 5693 5691 5690 5689 5682 5685 5672 5670 5665 5675 5676 5682 5700 5697 5695 5685 5680 5673 5671
5687 5689 5693 5689 5687 5684 5682 5689 5692 5698 5696 5691 5688 5688 5690 5690 5683 5680 5677 5684 5686 5683 5677 5670 5664 5683 5678 5677 5675 5668 5669 5663 5660 5650 5643 5642 5656 5661 5681 5687 5680 5669 5659 5655 5653
5671 5673 5678 5675 5669 5666 5667 5672 5675 5680 5677 5671 5671 5667 5669 5671 5667 5664 5660 5664 5667 5661 5658 5652 5645 5658 5653 5661 5660 5654 5646 5644 5638 5636 5626 5622 5627 5650 5656 5662 5650 5641 5636 5638 5641
5655 5658 5658 5656 5651 5652 5655 5660 5662 5664 5662 5653 5653 5653 5652 5651 5647 5646 5644 5646 5650 5646 5639 5638 5627 5626 5635 5641 5638 5633 5629 5628 5618 5615 5613 5603 5600 5629 5630 5635 5623 5621 5619 5620 5619
5638 5640 5639 5636 5636 5638 5639 5639 5638 5645 5646 5637 5634 5635 5637 5633 5628 5628 5628 5633 5630 5630 5623 5621 5613 5609 5611 5620 5621 5611 5613 5610 5607 5600 5594 5588 5587 5608 5599 5599 5605 5603 5603 5601 5600
5621 5620 5623 5618 5622 5620 5621 5618 5620 5627 5624 5621 5617 5617 5616 5613 5614 5607 5609 5611 5613 5610 5609 5603 5598 5598 5592 5594 5598 5592 5594 5592 5591 5582 5576 5573 5570 5577 5578 5578 5580 5579 5579 5579 5579
5603 5601 5600 5601 5605 5603 5602 5600 5605 5608 5603 5605 5599 5601 5600 5593 5593 5592 5593 5592 5594 5594 5591 5587 5578 5581 5580 5578 5575 5573 5573 5578 5571 5567 5556 5560 5555 5547 5555 5557 5558 5556 5555 5555 5556
5584 5587 5585 5587 5587 5586 5586 5588 5585 5591 5582 5583 5579 5584 5581 5575 5576 5576 5576 5576 5573 5573 5574 5568 5561 5561 5557 5564 5554 5548 5554 5555 5555 5553 5541 5538 5535 5533 5535 5537 5538 5536 5536 5533 5531
5567 5568 5567 5571 5571 5568 5571 5568 5567 5566 5564 5563 5563 5559 5563 5560 5558 5554 5557 5556 5554 5553 5556 5551 5547 5545 5533 5546 5533 5524 5543 5536 5529 5529 5522 5521 5520 5515 5513 5514 5512 5514 5513 5510 5508
Wind_Speed
19 17 17 16 17 16 16 17 17 16 17 17 16 17 18 18 20 20 19 20 20 19 20 21 22 23 25 25 24 25 24 22 25 25 23 24 23 21 20 21 19 23 24 21 19
21 21 20 19 19 20 21 22 23 23 23 23 22 21 21 21 22 22 22 22 22 21 21 22 23 25 26 26 27 27 25 24 28 27 27 26 25 25 24 24 23 26 26 23 21
27 27 26 26 25 25 26 27 27 28 28 28 28 27 26 26 26 26 26 26 25 24 24 23 24 25 27 29 29 27 26 27 28 31 30 27 27 27 28 24 26 26 27 28 25
34 33 33 32 32 32 32 33 33 33 34 33 32 31 28 27 28 28 26 26 26 26 28 27 27 28 29 31 31 30 27 29 27 32 31 31 28 29 30 26 30 30 32 31 31
40 39 39 39 38 38 39 39 38 38 37 37 36 33 30 26 28 28 28 28 28 29 31 32 33 36 35 36 35 33 30 29 27 30 32 33 28 35 26 26 32 35 31 30 30
39 40 40 39 39 39 38 37 36 36 36 36 35 33 29 22 31 33 32 31 34 35 37 39 39 41 39 36 37 37 35 32 30 30 32 36 30 40 25 35 32 34 34 32 28
34 35 35 35 36 36 37 37 36 37 37 37 37 37 33 25 30 34 38 39 40 41 41 43 44 44 44 41 43 42 42 36 29 32 39 43 42 33 32 36 34 33 35 33 32
42 41 42 42 41 41 41 40 38 39 40 41 41 42 36 31 36 38 42 43 42 43 43 44 46 48 46 43 46 46 48 41 31 35 41 48 50 31 36 41 39 36 35 36 34
44 45 45 44 44 44 44 43 43 43 43 45 45 46 42 36 37 40 41 42 44 44 44 43 46 49 47 43 49 45 52 51 45 32 42 48 49 38 35 39 42 41 39 41 40
46 47 48 47 46 46 47 46 47 47 48 48 49 50 49 45 43 41 41 43 44 46 47 46 49 50 45 43 50 49 51 51 50 37 43 52 51 46 43 43 36 35 34 37 40
51 51 50 51 51 50 50 51 51 52 52 52 54 54 53 52 50 44 42 43 46 47 47 52 55 51 44 47 49 52 52 53 50 46 52 51 52 48 42 38 32 33 36 34 30
50 50 49 50 51 52 52 53 55 56 55 56 54 55 54 54 53 48 47 47 46 46 47 51 55 47 51 51 51 52 53 54 53 52 54 54 52 50 46 39 36 30 26 31 34
54 54 53 53 55 55 55 56 56 57 59 56 55 55 54 54 53 51 51 50 51 50 47 53 52 46 48 50 48 48 51 50 56 54 54 56 53 51 44 37 31 34 37 34 34
56 59 54 57 58 58 59 58 57 59 62 63 61 59 57 55 54 54 49 46 42 39 39 47 42 42 42 46 46 52 45 50 51 54 56 53 53 49 46 43 38 38 39 34 31
51 51 53 55 54 55 58 56 55 56 61 59 61 58 52 51 50 49 52 52 51 48 48 50 48 47 50 44 48 54 54 50 52 55 58 60 60 53 54 55 55 48 44 45 46
47 50 50 50 52 54 54 53 50 52 66 63 61 60 59 58 56 57 57 61 59 60 59 55 54 56 55 55 52 52 55 59 57 57 61 61 60 54 56 60 62 58 61 62 60
51 49 51 49 49 53 55 52 52 57 60 61 58 55 52 53 54 56 58 59 59 60 59 58 58 58 57 57 55 51 52 58 63 65 63 61 65 57 62 61 64 63 65 66 66
51 52 53 52 51 53 58 56 59 63 62 60 59 58 57 56 57 59 59 60 60 62 67 68 65 58 57 56 59 58 59 62 63 64 65 63 70 65 60 60 61 66 67 68 66
62 64 58 59 64 65 62 63 67 62 59 61 63 67 62 60 59 62 65 64 64 65 68 70 77 73 71 67 64 64 65 57 61 61 65 66 69 69 63 61 59 64 65 62 60
64 66 67 61 63 62 66 74 73 70 70 73 75 72 72 72 70 70 73 75 74 72 73 75 79 77 77 76 75 70 68 69 68 69 72 75 73 72 62 59 62 62 62 62 60
66 68 69 67 66 69 72 74 71 68 68 71 72 71 73 74 69 66 70 71 73 71 70 71 74 78 81 81 75 76 75 73 69 65 70 74 73 65 64 58 63 64 64 65 59
66 68 69 70 70 72 74 68 67 68 69 71 71 69 71 69 71 72 72 69 67 71 74 71 73 75 73 73 72 72 72 69 70 74 72 70 68 57 58 60 62 66 67 66 68
62 62 63 65 68 66 65 63 63 63 65 70 71 70 69 70 71 69 69 70 69 67 70 69 65 72 73 74 75 75 70 70 69 63 63 64 64 55 58 65 70 70 72 72 73
61 63 64 65 64 65 64 65 67 64 65 65 66 67 69 70 67 65 66 66 64 65 65 67 67 70 72 72 69 69 67 66 66 69 69 71 74 71 76 74 65 65 67 70 73
66 66 66 67 65 65 64 67 67 66 64 62 65 65 66 68 67 63 57 62 65 66 64 64 69 67 67 68 68 66 67 65 68 70 76 76 81 75 73 65 66 66 68 66 65
69 67 67 66 64 64 63 63 63 61 62 64 65 63 65 68 67 67 67 68 67 66 65 65 67 68 68 66 67 71 69 68 69 71 73 73 76 75 76 79 73 74 74 65 69
65 66 65 65 65 65 65 64 64 64 65 66 68 69 68 69 70 71 70 70 70 70 69 70 69 71 77 71 74 79 73 73 75 73 76 81 79 79 78 77 76 75 79 81 81
Wind_Direction
255 258 260 260 258 264 273 284 290 293 294 296 296 298 301 301 299 298 300 295 298 299 299 301 301 302 302 301 300 299 302 300 297 297 294 297 294 292 298 290 284 283 293 297 298
255 255 257 259 261 266 272 279 285 290 292 294 295 294 296 296 293 292 293 294 295 297 297 297 298 298 298 296 295 295 300 293 295 292 293 293 293 289 291 287 272 275 285 294 289
258 259 261 264 267 269 273 278 280 282 285 287 289 290 290 292 289 290 292 295 297 298 296 296 296 296 296 294 293 296 298 291 293 291 292 291 288 289 286 285 276 274 277 278 273
263 264 266 268 270 273 277 278 279 280 281 282 282 283 284 287 287 285 289 290 292 293 294 294 294 292 290 291 293 296 296 290 292 291 296 292 289 285 284 283 278 275 277 281 281
266 268 269 270 271 273 274 275 276 277 277 277 278 278 279 285 279 283 285 287 288 289 290 290 291 290 291 296 293 295 291 293 291 293 293 290 292 284 294 284 275 280 280 277 280
264 266 268 269 270 270 271 271 272 273 274 275 275 276 275 277 278 285 286 287 288 289 290 290 290 289 289 290 293 296 294 293 295 294 289 284 276 282 298 280 285 283 283 281 278
259 261 263 265 269 270 270 270 271 272 272 272 274 274 273 274 277 281 284 285 287 286 285 284 284 283 285 289 289 289 290 292 299 290 284 280 278 293 292 283 281 276 277 278 279
262 262 263 265 266 267 269 269 268 271 273 274 274 275 276 275 280 281 282 284 284 283 283 282 281 281 283 284 287 289 289 291 282 281 286 285 287 288 284 284 280 278 276 278 282
262 263 264 264 266 268 269 269 269 270 272 273 275 276 277 276 275 278 281 285 285 284 281 279 279 280 280 284 285 289 287 283 282 286 286 283 284 287 277 278 281 284 287 285 283
264 264 266 266 265 267 267 268 269 270 271 273 274 276 279 280 279 278 281 283 282 282 281 280 276 276 282 288 283 279 279 283 287 290 277 278 281 283 286 285 293 294 289 285 283
264 266 266 267 269 268 269 269 270 270 270 271 274 275 278 279 280 279 280 278 278 278 280 279 279 282 287 278 279 280 281 283 286 286 281 277 282 286 285 288 293 292 291 292 285
264 265 266 267 267 269 269 270 270 270 269 270 271 275 276 278 280 281 282 282 276 275 278 279 276 282 276 277 277 280 282 282 283 283 280 285 285 285 289 292 295 290 289 292 290
263 263 264 266 269 269 270 270 270 270 272 270 270 272 273 275 278 281 282 284 282 277 278 273 276 277 279 277 278 279 278 281 280 282 281 285 285 285 287 290 288 290 291 290 291
265 265 266 268 270 270 271 271 268 269 274 275 273 272 272 274 277 279 282 282 280 281 276 271 272 273 277 279 281 276 279 277 281 281 282 278 278 280 287 289 284 282 285 285 280
264 267 268 267 270 270 270 269 268 271 273 274 276 278 278 278 282 284 281 282 281 277 275 276 275 271 269 276 278 280 277 278 278 277 276 275 280 283 289 291 289 286 289 292 290
267 266 269 267 268 269 269 267 269 268 269 272 277 279 282 282 283 280 279 278 276 274 273 275 274 269 270 270 275 275 275 274 273 273 272 278 283 274 279 281 285 288 295 298 295
267 269 266 266 267 270 273 271 267 268 273 274 275 280 283 283 283 284 283 281 278 276 273 273 273 273 270 268 272 274 273 271 272 275 277 278 277 266 274 283 287 293 295 293 291
268 272 272 267 272 271 271 267 269 278 277 269 271 276 277 279 281 283 282 282 283 282 280 276 270 270 271 276 276 276 278 275 278 280 278 273 271 265 277 279 284 289 290 288 286
261 264 267 273 269 272 265 262 273 272 271 272 274 276 274 273 280 279 278 276 277 279 280 281 279 280 279 278 276 278 275 280 279 277 274 272 274 274 277 282 282 281 282 288 287
270 268 272 275 277 278 278 270 271 278 279 279 279 279 278 275 279 282 282 277 276 278 281 281 279 275 278 278 277 279 280 279 279 280 279 280 276 276 277 278 276 275 276 274 271
270 272 274 275 276 276 277 280 280 282 283 280 280 280 280 281 282 279 277 280 282 284 280 282 283 279 278 278 281 280 277 278 280 276 278 282 281 282 280 275 274 272 269 269 271
272 273 273 275 274 275 277 279 279 279 278 277 275 276 277 276 275 275 276 276 278 279 281 282 282 284 284 281 281 279 281 280 281 284 282 281 281 286 280 277 270 270 271 270 265
275 276 275 275 276 279 279 277 274 276 276 274 274 274 272 271 271 271 272 274 275 273 275 276 276 278 277 280 283 283 281 279 280 276 271 270 271 267 266 271 274 270 269 267 264
279 278 278 279 279 279 278 277 277 277 274 271 271 270 271 271 269 271 271 271 271 272 273 274 274 275 275 277 275 271 273 274 272 269 265 265 272 272 274 275 275 272 271 269 269
282 283 283 282 281 280 279 279 279 279 277 273 271 270 271 271 271 269 269 269 271 272 274 273 273 274 274 274 274 274 273 270 268 269 274 274 274 274 275 274 276 279 270 264 266
280 281 280 281 280 280 281 282 281 281 279 277 276 276 274 272 272 272 272 272 271 272 271 273 275 276 275 275 276 274 273 275 275 276 275 270 269 271 273 277 277 268 264 266 266
275 277 277 278 280 282 283 284 285 283 280 281 279 276 273 271 270 270 269 268 269 270 272 273 274 275 274 275 273 270 278 276 276 274 271 273 275 277 279 279 277 268 264 265 269